Miscellaneous Local Product
Issued by NWS North Platte, NE

Home | Current Version | Previous Version | Text Only | Print | Product List | Glossary On
Versions: 1 2 3 4 5 6 7 8 9 10 11 12 13 14 15 16 17 18 19 20 21 22 23 24 25 26 27 28 29 30 31 32 33 34 35 36 37 38 39 40 41 42 43 44 45 46 47 48 49 50
803
AXUS43 KLBF 092310
MISLBF


WESTERN AND NORTH CENTRAL NEBRASKA HOURLY WEATHER ROUNDUP
NATIONAL WEATHER SERVICE NORTH PLATTE NE
500 PM CST TUE FEB 09 2016

NOTE: "FAIR" INDICATES FEW OR NO CLOUDS BELOW 12,000 FEET WITH NO
SIGNIFICANT WEATHER AND/OR OBSTRUCTIONS TO VISIBILITY.

NOTE: STATIONS NOT REPORTING VARIABLES SUCH AS SKY/WEATHER OR
PRESSURE ARE PROVIDED BY THE NEBRASKA DEPARTMENT OF
ROADS...RAWS...AND APRS NETWORKS...AND ARE NOT UNDER
NATIONAL WEATHER SERVICE QUALITY CONTROL.

...OBSERVATIONS IN AND NEAR THE EASTERN PANHANDLE OF NEBRASKA...

CITY           SKY/WX    TMP DP  RH WIND       PRES   REMARKS
PINE RIDGE     CLOUDY    44  31  60 CALM      30.14S
CHADRON        SUNNY     52  32  46 W13       30.14F
ALLIANCE       PTSUNNY   39  32  76 W17       30.15F WCI  30
SIDNEY         MOSUNNY   43  32  65 NW10      30.21F
CRESCENT LAKE    N/A     48  33  56 NW14G21     N/A
$$

...OBSERVATIONS IN NORTH CENTRAL NEBRASKA...

CITY           SKY/WX    TMP DP  RH WIND       PRES   REMARKS
VALENTINE      CLOUDY    40  25  55 W9        30.14F WCI  34
THEDFORD       CLOUDY    42  28  56 W9        30.15F
AINSWORTH      MOCLDY    36  21  55 SW6       30.15F WCI  31
O`NEILL        CLOUDY    32  13  47 W3        30.19F
ORD            MOCLDY    28  14  55 SW10      30.22F WCI  19
BROKEN BOW     CLOUDY    31  19  61 SW3       30.20F
VALENTINE NWR    N/A     39  22  51 W9          N/A  WCI  33
BUTTE            N/A     31  14  49 W5G12       N/A  WCI  26
HALSEY           N/A     38  21  51 SW6         N/A  WCI  33
CHAMBERS         N/A     32  13  45 W5          N/A  WCI  27
EWING            N/A     27  16  63 SW5         N/A  WCI  22
$$

...OBSERVATIONS IN SOUTHWEST NEBRASKA AND FAR NORTHEAST COLORADO...

CITY           SKY/WX    TMP DP  RH WIND       PRES   REMARKS
WRAY           FAIR      47  31  55 NW10      30.23S
HOLYOKE        FAIR      46  32  57 W9G16     30.21S
IMPERIAL       CLOUDY    43  31  62 NW7       30.20F
OGALLALA       CLOUDY    39  32  75 W5        30.18S
NORTH PLATTE   CLOUDY    36  21  54 S6        30.19F WCI  31
MCCOOK         PTSUNNY   36  23  59 SW6       30.22F WCI  31
LEXINGTON      CLOUDY    32  21  64 S5        30.22F WCI  27
PAXTON           N/A     41  35  77 CALM        N/A
STAPLETON        N/A     34  24  67 CALM        N/A
GOTHENBURG       N/A     34  22  61 CALM        N/A
CALLAWAY         N/A     33  25  72 SW8         N/A  WCI  26
$$

...OBSERVATIONS IN CENTRAL LINCOLN COUNTY AREA...

CITY           SKY/WX    TMP DP  RH WIND       PRES   REMARKS
N.P. AIRPORT   CLOUDY    36  21  54 S6        30.19F WCI  31
N.P. DOWNTOWN    N/A     37  24  59 CALM        N/A
N.P. SOUTHEAST   N/A     36  22  57 CALM        N/A
N.P. HILLCREST   N/A     36  24  63 SW5         N/A  WCI  32
$$

...SOME OBSERVATIONS FROM AROUND THE REGION...

CITY           SKY/WX    TMP DP  RH WIND       PRES   REMARKS
DENVER         MOSUNNY   52  20  28 CALM      30.28S
LARAMIE        SUNNY     43  21  41 NW15      30.32S
CHEYENNE       SUNNY     46  23  40 NW20G30   30.27S
SCOTTSBLUFF    SUNNY     51  33  50 NW10      30.20F
RAPID CITY     CLOUDY    52  29  41 N15       30.10F
BISMARCK       CLOUDY    40  18  41 NW5       30.14S
PIERRE         CLOUDY    34  17  50 S6        30.16S WCI  29
WINNER         FAIR      35  16  45 S7        30.17S WCI  29
SIOUX FALLS    CLOUDY    23  12  62 NW12      30.22R WCI  12
OMAHA          PTCLDY    23  11  60 NW13      30.26R WCI  11
GRAND ISLAND   CLOUDY    27  13  55 W7        30.28R WCI  19
KANSAS CITY    PTCLDY    26   4  38 NW15G26   30.22R WCI  14
WICHITA        CLOUDY    39  16  39 NW20      30.29R WCI  29
OKLAHOMA CITY  MOSUNNY   49  21  33 N17       30.28R
LIBERAL        PTSUNNY   55  28  35 N12       30.27R
HAYS           MOSUNNY   36  16  44 NE5       30.28F WCI  32
GOODLAND       SUNNY     46  31  55 NW9       30.22F
$$




USA.gov is the U.S. government's official web portal to all federal, state and local government web resources and services.